Location: Asheville, NC
(35.6000°N, 82.5500°W)
Time: 06:08:50

Tiangong 2 - Pass Details

Date: 15 March 2018
Orbit: 383 x 389 km, 42.8° (Epoch: 16 March)

Event Time Altitude Azimuth Distance (km) Brightness Sun altitude
Exits shadow 06:26:14 30° 311° (NW) 712 2.0 -16.0°
Maximum altitude 06:26:59 35° 342° (NNW) 639 2.1 -15.8°
Drops below altitude 10° 06:29:56 10° 51° (NE) 1,408 4.8 -15.2°
Sets 06:32:07 0° 61° (ENE) 2,265 6.3 -14.8°
